Time,TemperatureF,DewpointF,PressureIn,WindDirection,WindDirectionDegrees,WindSpeedMPH,WindSpeedGustMPH,Humidity,HourlyPrecipIn,Conditions,Clouds,dailyrainin,SoftwareType,DateUTC
2013-01-20 00:02:00,-999.0,-99.9,29.69,ENE,62,23.0,29.0,-999,-99.99,,,-99.99,,2013-01-20 09:02:00,
2013-01-20 00:12:00,21.0,-99.9,29.69,ENE,64,23.0,31.0,-999,-99.99,,,-99.99,,2013-01-20 09:12:00,
2013-01-20 00:22:00,-999.0,-99.9,29.69,ENE,65,26.0,32.0,-999,-99.99,,,-99.99,,2013-01-20 09:22:00,
2013-01-20 00:33:00,-999.0,-99.9,29.68,ENE,68,25.0,29.0,-999,-99.99,,,-99.99,,2013-01-20 09:33:00,
2013-01-20 00:43:00,22.0,-99.9,29.68,ENE,66,27.0,31.0,-999,-99.99,,,-99.99,,2013-01-20 09:43:00,
2013-01-20 00:53:00,-999.0,-99.9,29.68,ENE,69,27.0,32.0,-999,-99.99,,,-99.99,,2013-01-20 09:53:00,
2013-01-20 01:03:00,-999.0,-99.9,29.68,ENE,67,28.0,34.0,-999,-99.99,,,-99.99,,2013-01-20 10:03:00,
2013-01-20 01:12:00,22.0,-99.9,29.68,ENE,68,26.0,32.0,-999,-99.99,,,-99.99,,2013-01-20 10:12:00,
2013-01-20 01:23:00,-999.0,-99.9,29.67,ENE,67,28.0,34.0,-999,-99.99,,,-99.99,,2013-01-20 10:23:00,
2013-01-20 01:33:00,-999.0,-99.9,29.67,ENE,68,27.0,36.0,-999,-99.99,,,-99.99,,2013-01-20 10:33:00,
2013-01-20 01:42:00,22.0,-99.9,29.67,ENE,67,29.0,34.0,-999,-99.99,,,-99.99,,2013-01-20 10:42:00,
2013-01-20 01:53:00,-999.0,-99.9,29.66,ENE,71,29.0,34.0,-999,-99.99,,,-99.99,,2013-01-20 10:53:00,
2013-01-20 02:03:00,-999.0,-99.9,29.66,ENE,62,29.0,34.0,-999,-99.99,,,-99.99,,2013-01-20 11:03:00,
2013-01-20 02:12:00,22.0,-99.9,29.66,ENE,65,27.0,34.0,-999,-99.99,,,-99.99,,2013-01-20 11:12:00,
2013-01-20 02:22:00,-999.0,-99.9,29.65,ENE,64,26.0,33.0,-999,-99.99,,,-99.99,,2013-01-20 11:22:00,
2013-01-20 02:33:00,-999.0,-99.9,29.64,ENE,66,27.0,36.0,-999,-99.99,,,-99.99,,2013-01-20 11:33:00,
2013-01-20 02:43:00,-999.0,-99.9,29.64,ENE,64,26.0,35.0,-999,-99.99,,,-99.99,,2013-01-20 11:43:00,
2013-01-20 02:54:00,22.0,-99.9,29.64,ENE,64,26.0,34.0,-999,-99.99,,,-99.99,,2013-01-20 11:54:00,
2013-01-20 03:03:00,-999.0,-99.9,29.63,ENE,66,28.0,34.0,-999,-99.99,,,-99.99,,2013-01-20 12:03:00,
2013-01-20 03:13:00,22.0,-99.9,29.63,ENE,69,28.0,36.0,-999,-99.99,,,-99.99,,2013-01-20 12:13:00,
2013-01-20 03:23:00,-999.0,-99.9,29.63,ENE,65,31.0,36.0,-999,-99.99,,,-99.99,,2013-01-20 12:23:00,
2013-01-20 03:34:00,-999.0,-99.9,29.64,ENE,77,24.0,36.0,-999,-99.99,,,-99.99,,2013-01-20 12:34:00,
2013-01-20 03:43:00,22.0,-99.9,29.64,ENE,76,29.0,35.0,-999,-99.99,,,-99.99,,2013-01-20 12:43:00,
2013-01-20 03:53:00,-999.0,-99.9,29.63,East,79,29.0,36.0,-999,-99.99,,,-99.99,,2013-01-20 12:53:00,
2013-01-20 04:03:00,-999.0,-99.9,29.63,East,79,29.0,36.0,-999,-99.99,,,-99.99,,2013-01-20 13:03:00,
2013-01-20 04:12:00,-999.0,-99.9,29.62,ENE,75,31.0,39.0,-999,-99.99,,,-99.99,,2013-01-20 13:12:00,
2013-01-20 04:23:00,22.0,-99.9,29.63,ENE,77,29.0,39.0,-999,-99.99,,,-99.99,,2013-01-20 13:23:00,
2013-01-20 04:33:00,-999.0,-99.9,29.63,ENE,78,31.0,41.0,-999,-99.99,,,-99.99,,2013-01-20 13:33:00,
2013-01-20 04:43:00,21.0,-99.9,29.63,ENE,75,33.0,40.0,-999,-99.99,,,-99.99,,2013-01-20 13:43:00,
2013-01-20 04:53:00,-999.0,-99.9,29.62,ENE,75,31.0,40.0,-999,-99.99,,,-99.99,,2013-01-20 13:53:00,
2013-01-20 05:03:00,-999.0,-99.9,29.62,ENE,75,33.0,38.0,-999,-99.99,,,-99.99,,2013-01-20 14:03:00,
2013-01-20 05:12:00,21.0,-99.9,29.61,ENE,78,32.0,37.0,-999,-99.99,,,-99.99,,2013-01-20 14:12:00,
2013-01-20 05:23:00,-999.0,-99.9,29.61,ENE,76,28.0,36.0,-999,-99.99,,,-99.99,,2013-01-20 14:23:00,
2013-01-20 05:33:00,-999.0,-99.9,29.61,ENE,78,27.0,34.0,-999,-99.99,,,-99.99,,2013-01-20 14:33:00,
2013-01-20 05:43:00,-999.0,-99.9,29.60,ENE,76,28.0,37.0,-999,-99.99,,,-99.99,,2013-01-20 14:43:00,
2013-01-20 05:53:00,-999.0,-99.9,29.60,ENE,77,28.0,35.0,-999,-99.99,,,-99.99,,2013-01-20 14:53:00,
2013-01-20 06:04:00,-999.0,-99.9,29.60,ENE,78,30.0,35.0,-999,-99.99,,,-99.99,,2013-01-20 15:04:00,
2013-01-20 06:13:00,22.0,-99.9,29.60,East,80,26.0,35.0,-999,-99.99,,,-99.99,,2013-01-20 15:13:00,
2013-01-20 06:23:00,-999.0,-99.9,29.60,East,80,26.0,35.0,-999,-99.99,,,-99.99,,2013-01-20 15:23:00,
2013-01-20 06:33:00,-999.0,-99.9,29.60,East,80,26.0,34.0,-999,-99.99,,,-99.99,,2013-01-20 15:33:00,
2013-01-20 06:43:00,22.0,-99.9,29.60,East,84,27.0,31.0,-999,-99.99,,,-99.99,,2013-01-20 15:43:00,
2013-01-20 06:53:00,-999.0,-99.9,29.60,East,80,25.0,30.0,-999,-99.99,,,-99.99,,2013-01-20 15:53:00,
2013-01-20 07:03:00,-999.0,-99.9,29.60,East,80,27.0,33.0,-999,-99.99,,,-99.99,,2013-01-20 16:03:00,
2013-01-20 07:12:00,-999.0,-99.9,29.60,East,81,26.0,32.0,-999,-99.99,,,-99.99,,2013-01-20 16:12:00,
2013-01-20 07:23:00,-999.0,-99.9,29.60,East,84,27.0,31.0,-999,-99.99,,,-99.99,,2013-01-20 16:23:00,
2013-01-20 07:33:00,-999.0,-99.9,29.60,East,83,28.0,33.0,-999,-99.99,,,-99.99,,2013-01-20 16:33:00,
2013-01-20 07:43:00,23.0,-99.9,29.60,East,85,29.0,32.0,-999,-99.99,,,-99.99,,2013-01-20 16:43:00,
2013-01-20 07:53:00,-999.0,-99.9,29.60,East,85,28.0,34.0,-999,-99.99,,,-99.99,,2013-01-20 16:53:00,
2013-01-20 08:03:00,-999.0,-99.9,29.61,East,87,29.0,33.0,-999,-99.99,,,-99.99,,2013-01-20 17:03:00,
2013-01-20 08:13:00,22.0,-99.9,29.61,East,87,28.0,34.0,-999,-99.99,,,-99.99,,2013-01-20 17:13:00,
2013-01-20 08:23:00,-999.0,-99.9,29.61,East,90,27.0,35.0,-999,-99.99,,,-99.99,,2013-01-20 17:23:00,
2013-01-20 08:33:00,-999.0,-99.9,29.61,East,88,26.0,30.0,-999,-99.99,,,-99.99,,2013-01-20 17:33:00,
2013-01-20 08:43:00,22.0,-99.9,29.61,East,90,28.0,33.0,-999,-99.99,,,-99.99,,2013-01-20 17:43:00,
2013-01-20 08:53:00,-999.0,-99.9,29.61,East,87,26.0,32.0,-999,-99.99,,,-99.99,,2013-01-20 17:53:00,
2013-01-20 09:03:00,-999.0,-99.9,29.62,East,88,26.0,31.0,-999,-99.99,,,-99.99,,2013-01-20 18:03:00,
2013-01-20 09:13:00,23.0,-99.9,29.62,East,88,24.0,30.0,-999,-99.99,,,-99.99,,2013-01-20 18:13:00,
2013-01-20 09:24:00,-999.0,-99.9,29.62,East,91,21.0,26.0,-999,-99.99,,,-99.99,,2013-01-20 18:24:00,
2013-01-20 09:33:00,-999.0,-99.9,29.63,East,91,19.0,24.0,-999,-99.99,,,-99.99,,2013-01-20 18:33:00,
2013-01-20 09:43:00,24.0,-99.9,29.63,East,93,21.0,25.0,-999,-99.99,,,-99.99,,2013-01-20 18:43:00,
2013-01-20 09:53:00,-999.0,-99.9,29.63,East,90,27.0,33.0,-999,-99.99,,,-99.99,,2013-01-20 18:53:00,
2013-01-20 10:03:00,-999.0,-99.9,29.64,East,94,26.0,31.0,-999,-99.99,,,-99.99,,2013-01-20 19:03:00,
2013-01-20 10:12:00,23.0,-99.9,29.64,East,92,28.0,33.0,-999,-99.99,,,-99.99,,2013-01-20 19:12:00,
2013-01-20 10:23:00,-999.0,-99.9,29.65,East,91,24.0,30.0,-999,-99.99,,,-99.99,,2013-01-20 19:23:00,
2013-01-20 10:33:00,-999.0,-99.9,29.65,East,92,25.0,33.0,-999,-99.99,,,-99.99,,2013-01-20 19:33:00,
2013-01-20 10:43:00,-999.0,-99.9,29.66,East,93,26.0,33.0,-999,-99.99,,,-99.99,,2013-01-20 19:43:00,
2013-01-20 10:53:00,22.0,-99.9,29.67,East,94,24.0,32.0,-999,-99.99,,,-99.99,,2013-01-20 19:53:00,
2013-01-20 11:03:00,-999.0,-99.9,29.67,East,91,25.0,30.0,-999,-99.99,,,-99.99,,2013-01-20 20:03:00,
2013-01-20 11:12:00,23.0,-99.9,29.67,East,88,25.0,29.0,-999,-99.99,,,-99.99,,2013-01-20 20:12:00,
2013-01-20 11:23:00,-999.0,-99.9,29.68,East,90,23.0,29.0,-999,-99.99,,,-99.99,,2013-01-20 20:23:00,
2013-01-20 11:33:00,-999.0,-99.9,29.68,East,90,23.0,29.0,-999,-99.99,,,-99.99,,2013-01-20 20:33:00,
2013-01-20 11:43:00,23.0,-99.9,29.69,East,88,23.0,27.0,-999,-99.99,,,-99.99,,2013-01-20 20:43:00,
2013-01-20 11:54:00,-999.0,-99.9,29.69,East,87,24.0,31.0,-999,-99.99,,,-99.99,,2013-01-20 20:54:00,
2013-01-20 12:04:00,-999.0,-99.9,29.70,East,87,23.0,27.0,-999,-99.99,,,-99.99,,2013-01-20 21:04:00,
2013-01-20 12:13:00,-999.0,-99.9,29.70,East,85,21.0,25.0,-999,-99.99,,,-99.99,,2013-01-20 21:13:00,
2013-01-20 12:23:00,-999.0,-99.9,29.71,East,85,20.0,22.0,-999,-99.99,,,-99.99,,2013-01-20 21:23:00,
2013-01-20 12:34:00,-999.0,-99.9,29.71,East,82,21.0,26.0,-999,-99.99,,,-99.99,,2013-01-20 21:34:00,
2013-01-20 12:43:00,22.0,-99.9,29.71,East,83,21.0,25.0,-999,-99.99,,,-99.99,,2013-01-20 21:43:00,
2013-01-20 12:54:00,-999.0,-99.9,29.72,East,89,20.0,25.0,-999,-99.99,,,-99.99,,2013-01-20 21:54:00,
2013-01-20 13:03:00,-999.0,-99.9,29.72,East,90,18.0,23.0,-999,-99.99,,,-99.99,,2013-01-20 22:03:00,
2013-01-20 13:13:00,22.0,-99.9,29.72,East,86,17.0,21.0,-999,-99.99,,,-99.99,,2013-01-20 22:13:00,
2013-01-20 13:23:00,-999.0,-99.9,29.72,East,86,17.0,20.0,-999,-99.99,,,-99.99,,2013-01-20 22:23:00,
2013-01-20 13:33:00,-999.0,-99.9,29.72,East,87,20.0,23.0,-999,-99.99,,,-99.99,,2013-01-20 22:33:00,
2013-01-20 13:43:00,22.0,-99.9,29.72,East,87,21.0,24.0,-999,-99.99,,,-99.99,,2013-01-20 22:43:00,
2013-01-20 13:53:00,-999.0,-99.9,29.72,East,87,19.0,22.0,-999,-99.99,,,-99.99,,2013-01-20 22:53:00,
2013-01-20 14:03:00,-999.0,-99.9,29.73,East,86,20.0,24.0,-999,-99.99,,,-99.99,,2013-01-20 23:03:00,
2013-01-20 14:13:00,22.0,-99.9,29.73,East,87,19.0,23.0,-999,-99.99,,,-99.99,,2013-01-20 23:13:00,
2013-01-20 14:23:00,-999.0,-99.9,29.74,East,89,19.0,23.0,-999,-99.99,,,-99.99,,2013-01-20 23:23:00,
2013-01-20 14:33:00,-999.0,-99.9,29.75,East,89,21.0,24.0,-999,-99.99,,,-99.99,,2013-01-20 23:33:00,
2013-01-20 14:43:00,22.0,-99.9,29.75,East,89,21.0,26.0,-999,-99.99,,,-99.99,,2013-01-20 23:43:00,
2013-01-20 14:53:00,-999.0,-99.9,29.75,East,88,20.0,24.0,-999,-99.99,,,-99.99,,2013-01-20 23:53:00,
2013-01-20 15:03:00,-999.0,-99.9,29.75,East,89,22.0,26.0,-999,-99.99,,,-99.99,,2013-01-21 00:03:00,
2013-01-20 15:13:00,23.0,-99.9,29.75,East,87,22.0,27.0,-999,-99.99,,,-99.99,,2013-01-21 00:13:00,
2013-01-20 15:23:00,-999.0,-99.9,29.75,East,87,21.0,25.0,-999,-99.99,,,-99.99,,2013-01-21 00:23:00,
2013-01-20 15:33:00,-999.0,-99.9,29.75,East,90,21.0,26.0,-999,-99.99,,,-99.99,,2013-01-21 00:33:00,
2013-01-20 15:43:00,-999.0,-99.9,29.76,East,91,20.0,22.0,-999,-99.99,,,-99.99,,2013-01-21 00:43:00,
2013-01-20 15:54:00,23.0,-99.9,29.76,East,88,20.0,23.0,-999,-99.99,,,-99.99,,2013-01-21 00:54:00,
2013-01-20 16:03:00,-999.0,-99.9,29.76,East,90,19.0,22.0,-999,-99.99,,,-99.99,,2013-01-21 01:03:00,
2013-01-20 16:13:00,23.0,-99.9,29.76,East,90,19.0,24.0,-999,-99.99,,,-99.99,,2013-01-21 01:13:00,
2013-01-20 16:23:00,-999.0,-99.9,29.76,East,84,20.0,25.0,-999,-99.99,,,-99.99,,2013-01-21 01:23:00,
2013-01-20 16:33:00,-999.0,-99.9,29.77,East,86,20.0,25.0,-999,-99.99,,,-99.99,,2013-01-21 01:33:00,
2013-01-20 16:43:00,23.0,-99.9,29.77,East,87,23.0,28.0,-999,-99.99,,,-99.99,,2013-01-21 01:43:00,
2013-01-20 16:53:00,-999.0,-99.9,29.77,East,88,23.0,28.0,-999,-99.99,,,-99.99,,2013-01-21 01:53:00,
2013-01-20 17:03:00,-999.0,-99.9,29.78,East,88,21.0,25.0,-999,-99.99,,,-99.99,,2013-01-21 02:03:00,
2013-01-20 17:13:00,-999.0,-99.9,29.78,East,92,24.0,27.0,-999,-99.99,,,-99.99,,2013-01-21 02:13:00,
2013-01-20 17:23:00,-999.0,-99.9,29.78,East,92,24.0,28.0,-999,-99.99,,,-99.99,,2013-01-21 02:23:00,
2013-01-20 17:33:00,-999.0,-99.9,29.78,East,89,22.0,26.0,-999,-99.99,,,-99.99,,2013-01-21 02:33:00,
2013-01-20 17:43:00,23.0,-99.9,29.78,East,88,23.0,26.0,-999,-99.99,,,-99.99,,2013-01-21 02:43:00,
2013-01-20 17:53:00,-999.0,-99.9,29.79,East,87,24.0,30.0,-999,-99.99,,,-99.99,,2013-01-21 02:53:00,
2013-01-20 18:03:00,-999.0,-99.9,29.79,East,88,24.0,28.0,-999,-99.99,,,-99.99,,2013-01-21 03:03:00,
2013-01-20 18:13:00,23.0,-99.9,29.80,East,84,23.0,28.0,-999,-99.99,,,-99.99,,2013-01-21 03:13:00,
2013-01-20 18:23:00,-999.0,-99.9,29.80,East,87,23.0,28.0,-999,-99.99,,,-99.99,,2013-01-21 03:23:00,
2013-01-20 18:33:00,-999.0,-99.9,29.81,East,80,19.0,24.0,-999,-99.99,,,-99.99,,2013-01-21 03:33:00,
2013-01-20 18:44:00,23.0,-99.9,29.81,East,81,16.0,24.0,-999,-99.99,,,-99.99,,2013-01-21 03:44:00,
2013-01-20 18:54:00,-999.0,-99.9,29.82,East,86,19.0,23.0,-999,-99.99,,,-99.99,,2013-01-21 03:54:00,
2013-01-20 19:03:00,-999.0,-99.9,29.83,East,81,18.0,23.0,-999,-99.99,,,-99.99,,2013-01-21 04:03:00,
2013-01-20 19:13:00,23.0,-99.9,29.83,East,84,18.0,22.0,-999,-99.99,,,-99.99,,2013-01-21 04:13:00,
2013-01-20 19:23:00,-999.0,-99.9,29.83,East,85,19.0,25.0,-999,-99.99,,,-99.99,,2013-01-21 04:23:00,
2013-01-20 19:33:00,-999.0,-99.9,29.83,East,83,18.0,24.0,-999,-99.99,,,-99.99,,2013-01-21 04:33:00,
2013-01-20 19:43:00,24.0,-99.9,29.83,East,82,19.0,24.0,-999,-99.99,,,-99.99,,2013-01-21 04:43:00,
2013-01-20 19:53:00,-999.0,-99.9,29.84,East,80,21.0,26.0,-999,-99.99,,,-99.99,,2013-01-21 04:53:00,
2013-01-20 20:04:00,-999.0,-99.9,29.85,ENE,78,19.0,24.0,-999,-99.99,,,-99.99,,2013-01-21 05:04:00,
2013-01-20 20:13:00,24.0,-99.9,29.85,ENE,76,16.0,21.0,-999,-99.99,,,-99.99,,2013-01-21 05:13:00,
2013-01-20 20:23:00,-999.0,-99.9,29.85,ENE,78,18.0,20.0,-999,-99.99,,,-99.99,,2013-01-21 05:23:00,
2013-01-20 20:34:00,-999.0,-99.9,29.85,ENE,77,18.0,26.0,-999,-99.99,,,-99.99,,2013-01-21 05:34:00,
2013-01-20 20:43:00,-999.0,-99.9,29.85,East,82,18.0,22.0,-999,-99.99,,,-99.99,,2013-01-21 05:43:00,
2013-01-20 20:53:00,24.0,-99.9,29.85,ENE,77,17.0,22.0,-999,-99.99,,,-99.99,,2013-01-21 05:53:00,
2013-01-20 21:03:00,-999.0,-99.9,29.85,ENE,69,17.0,21.0,-999,-99.99,,,-99.99,,2013-01-21 06:03:00,
2013-01-20 21:13:00,24.0,-99.9,29.85,ENE,68,18.0,22.0,-999,-99.99,,,-99.99,,2013-01-21 06:13:00,
2013-01-20 21:23:00,-999.0,-99.9,29.86,ENE,61,15.0,18.0,-999,-99.99,,,-99.99,,2013-01-21 06:23:00,
2013-01-20 21:33:00,-999.0,-99.9,29.87,ENE,67,15.0,19.0,-999,-99.99,,,-99.99,,2013-01-21 06:33:00,
2013-01-20 21:43:00,24.0,-99.9,29.87,ENE,57,13.0,17.0,-999,-99.99,,,-99.99,,2013-01-21 06:43:00,
2013-01-20 21:53:00,-999.0,-99.9,29.87,ENE,63,15.0,17.0,-999,-99.99,,,-99.99,,2013-01-21 06:53:00,
2013-01-20 22:03:00,-999.0,-99.9,29.87,ENE,74,15.0,18.0,-999,-99.99,,,-99.99,,2013-01-21 07:03:00,
2013-01-20 22:13:00,-999.0,-99.9,29.87,ENE,74,17.0,19.0,-999,-99.99,,,-99.99,,2013-01-21 07:13:00,
2013-01-20 22:23:00,25.0,-99.9,29.87,ENE,73,14.0,20.0,-999,-99.99,,,-99.99,,2013-01-21 07:23:00,
2013-01-20 22:33:00,-999.0,-99.9,29.87,ENE,73,15.0,17.0,-999,-99.99,,,-99.99,,2013-01-21 07:33:00,
2013-01-20 22:43:00,25.0,-99.9,29.87,ENE,73,15.0,17.0,-999,-99.99,,,-99.99,,2013-01-21 07:43:00,
2013-01-20 22:53:00,-999.0,-99.9,29.88,ENE,75,13.0,18.0,-999,-99.99,,,-99.99,,2013-01-21 07:53:00,
2013-01-20 23:03:00,-999.0,-99.9,29.88,ENE,78,12.0,16.0,-999,-99.99,,,-99.99,,2013-01-21 08:03:00,
2013-01-20 23:14:00,25.0,-99.9,29.88,ENE,73,11.0,14.0,-999,-99.99,,,-99.99,,2013-01-21 08:14:00,
2013-01-20 23:23:00,-999.0,-99.9,29.88,ENE,71,12.0,15.0,-999,-99.99,,,-99.99,,2013-01-21 08:23:00,
2013-01-20 23:33:00,-999.0,-99.9,29.88,ENE,71,12.0,15.0,-999,-99.99,,,-99.99,,2013-01-21 08:33:00,
2013-01-20 23:43:00,-999.0,-99.9,29.88,ENE,78,14.0,17.0,-999,-99.99,,,-99.99,,2013-01-21 08:43:00,
2013-01-20 23:53:00,26.0,-99.9,29.88,ENE,72,14.0,17.0,-999,-99.99,,,-99.99,,2013-01-21 08:53:00,